FREGAT DEB, 45641

Orbit data source: Space-Track

FREGAT DEB, 45641 is space debris in LEO originally from a launch on Mon, 18 Jul 2011 UTC launched from the Tyuratam Missile And Space Complex (TTMTR). Debris objects in space refer to the collection of defunct objects orbiting the Earth. Examples of debris include non-operational satellites, rocket bodies, and fragments generated from explosions, collisions, or faulty payload assembly.

Loading next visibility...
Identifier
45641, 2011-037AH
Orbit
LEO
Country
Flag of CISCIS
Related business
Manufacturer
Lavochkin
Mission
Spacecraft
Bus & Motor
Unknown
Mass
Unknown
Launch date (UTC)
2011-07-18 (14 years ago)
Launch vehicle
Unknown
Launch site
Tyuratam Missile And Space Complex (TTMTR)
Object type
Payload
Rocket body
Debris
Shape & HBR
Unknown shape, 0.3 m
Radar Cross Section
Medium (>0.1 m² and <1 m²)

Expand to show TLE details & history
Last TLE update: 15 hours ago

TLE from 15 hours ago
0 FREGAT DEB
1 45641U 11037AH  25304.70538689  .00780802  00000-0  12620-1 0  9999
2 45641  51.6272  47.9721 0300025 217.3793 140.5971 15.13664298253289
Epoch: 2025-10-31T16:55Z
TLE epoch observation values (Epoch: 2025-10-31T16:55:45.427Z)
Latitude
0.00002°
Longitude
113.78685°
Altitude
688.211 km
Speed
7.425 km/s
True Right ascension
03h 11m 53s
True Declination
0° 00' 00"
Sunlit
Object was in full shadow at epoch
Visualization orbit readout
Latitude
Unknown
Longitude
Unknown
Altitude
Unknown
Speed
Unknown
Apparent Right ascension
Unknown
Apparent Declination
Unknown
Sunlit
N/A
Visualization observer readout
Local Sidereal Time
03:40:33
Azimuth
Unknown
Elevation
Unknown
Doppler factor
Unknown
Orbital elements
Apogee altitude
732.667 km
Perigee altitude
318.412 km
Semi-major axis
6,903.676 km
Eccentricity
0.03
Inclination
51.6272°
RAAN
47.9721°
Arg. of periapsis
217.3793°
True anomaly
142.71745°
Mean anomaly
140.5971°
Eccentric anomaly
141.66337°
Mean motion
3.78375 °/min
Orbital period
95.14 mins
BSTAR
0.01262
Loading maneuver chart data...
Computing Atmospheric mass density...
Loading historical data...
Loading historical data...
Loading historical data...
Loading historical data...
Loading historical data...
Loading historical data...
Loading historical data...

Documentation

Showing up to 5 results
|